BG9VZ-13 Weather Reports


Display with metric or nautical units.
time (UTC)temp
F
wind
direction
speed
MPH
gust
MPH
rain 1hr
in
rain 24hr
in
rain mn
in
humidity
%
barometer
mb
20260508130636 65 0 0.0 0.0 0.00 0.00 0.00 40 774.3
20260508123637 65 0 0.0 0.0 0.00 0.00 0.00 39 774.2
20260508120638 65 0 0.0 0.0 0.00 0.00 0.00 39 773.6
20260508113639 65 0 0.0 0.0 0.00 0.00 0.00 38 773.1
20260508110640 65 0 0.0 0.0 0.00 0.00 0.00 38 772.5
20260508103641 65 0 0.0 0.0 0.00 0.00 0.00 37 771.8
20260508100642 65 0 0.0 0.0 0.00 0.00 0.00 37 771.4
20260508093642 66 0 0.0 0.0 0.00 0.00 0.00 35 770.5
20260508090643 66 0 0.0 0.0 0.00 0.00 0.00 34 770.0
20260508083644 67 0 0.0 0.0 0.00 0.00 0.00 32 770.0
20260508080645 66 0 0.0 0.0 0.00 0.00 0.00 32 770.3
20260508073646 66 0 0.0 0.0 0.00 0.00 0.00 30 770.5
20260508070647 66 0 0.0 0.0 0.00 0.00 0.00 28 770.9
20260508063648 66 0 0.0 0.0 0.00 0.00 0.00 30 771.4
20260508060649 65 0 0.0 0.0 0.00 0.00 0.00 30 771.8
20260508053650 65 0 0.0 0.0 0.00 0.00 0.00 38 772.3
20260508050651 65 0 0.0 0.0 0.00 0.00 0.00 43 772.9
20260508043652 65 0 0.0 0.0 0.00 0.00 0.00 43 773.6
20260508040653 65 0 0.0 0.0 0.00 0.00 0.00 43 774.1
20260508033654 65 0 0.0 0.0 0.00 0.00 0.00 43 774.5
20260508030655 65 0 0.0 0.0 0.00 0.00 0.00 44 774.9
20260508023656 65 0 0.0 0.0 0.00 0.00 0.00 44 775.3
20260508020657 65 0 0.0 0.0 0.00 0.00 0.00 44 775.6
20260508013658 64 0 0.0 0.0 0.00 0.00 0.00 44 775.7
20260508010700 64 0 0.0 0.0 0.00 0.00 0.00 44 776.0
20260508003701 64 0 0.0 0.0 0.00 0.00 0.00 44 776.0
20260508000702 64 0 0.0 0.0 0.00 0.00 0.00 44 775.8
20260507233703 64 0 0.0 0.0 0.00 0.00 0.00 44 775.7
20260507230704 64 0 0.0 0.0 0.00 0.00 0.00 44 775.5
20260507223705 64 0 0.0 0.0 0.00 0.00 0.00 44 775.3
20260507220707 64 0 0.0 0.0 0.00 0.00 0.00 44 775.0
20260507213708 64 0 0.0 0.0 0.00 0.00 0.00 44 774.8
20260507210709 64 0 0.0 0.0 0.00 0.00 0.00 44 774.7
20260507203710 64 0 0.0 0.0 0.00 0.00 0.00 44 774.5
20260507200711 64 0 0.0 0.0 0.00 0.00 0.00 44 774.5
20260507193712 64 0 0.0 0.0 0.00 0.00 0.00 43 774.4
20260507190713 64 0 0.0 0.0 0.00 0.00 0.00 43 774.5
20260507183714 64 0 0.0 0.0 0.00 0.00 0.00 43 774.4
20260507180715 64 0 0.0 0.0 0.00 0.00 0.00 43 774.6
20260507173716 64 0 0.0 0.0 0.00 0.00 0.00 43 774.9
20260507170717 64 0 0.0 0.0 0.00 0.00 0.00 43 775.1
20260507163718 64 0 0.0 0.0 0.00 0.00 0.00 43 775.1
20260507160719 64 0 0.0 0.0 0.00 0.00 0.00 43 775.0
20260507153720 64 0 0.0 0.0 0.00 0.00 0.00 42 774.9
20260507150721 64 0 0.0 0.0 0.00 0.00 0.00 42 774.9
20260507143722 64 0 0.0 0.0 0.00 0.00 0.00 42 774.9
20260507140723 64 0 0.0 0.0 0.00 0.00 0.00 42 774.6
20260507133724 65 0 0.0 0.0 0.00 0.00 0.00 42 774.4